Location: Street
(51.1247°N, 2.7429°W)
Time: 07:38:32
(UTC+01:00)

X-37B - Pass Details

Date: 04 August 2021
Orbit: 381 x 393 km, 45.0° (Epoch: 29 August)

Event Time Altitude Azimuth Distance (km) Brightness Sun altitude
Exits shadow 04:48:40 - 213° (SSW) 1,430 2.8 -7.6°
Reaches altitude 10° 04:48:46 10° 212° (SSW) 1,394 2.8 -7.6°
Maximum altitude 04:51:06 19° 164° (SSE) 975 2.4 -7.3°
Drops below altitude 10° 04:53:27 10° 115° (ESE) 1,398 3.8 -7.0°
Sets 04:55:52 0° 97° (E) 2,254 5.2 -6.7°
